ARIANE 1 DEB, 25765

Orbit data source: Space-Track

ARIANE 1 DEB, 25765 is space debris in HEO originally from a launch on Mon, 24 Dec 1979 UTC launched from the French Guiana (FRGUI). Debris objects in space refer to the collection of defunct objects orbiting the Earth. Examples of debris include non-operational satellites, rocket bodies, and fragments generated from explosions, collisions, or faulty payload assembly.

Loading next visibility...
Identifier
25765, 1979-104G
Orbit
HEO
Country
Flag of FRFR
Related business
Manufacturer
Unknown
Mission
Spacecraft
Bus & Motor
Unknown
Mass
Unknown
Launch date (UTC)
1979-12-24 (46 years ago)
Launch vehicle
Unknown
Launch site
French Guiana (FRGUI)
Object type
Payload
Rocket body
Debris
Shape & HBR
Unknown shape, 0.3 m
Radar Cross Section
Medium (>0.1 m² and <1 m²)

Expand to show TLE details & history
Last TLE update: 1 day ago

TLE from 1 day ago
0 ARIANE 1 DEB
1 25765U 79104G   26061.63831048  .00000922  00000-0  15997-2 0  9990
2 25765  19.8770 231.9188 5527852  22.5240 354.4721  4.57128694420446
Epoch: 2026-03-02T15:19Z
TLE epoch observation values (Epoch: 2026-03-02T15:19:10.025Z)
Latitude
-0.00007°
Longitude
-158.32947°
Altitude
677.503 km
Speed
9.327 km/s
True Right ascension
15h 27m 33s
True Declination
0° 00' 00"
Sunlit
Object was in daylight at epoch
Visualization orbit readout
Latitude
Unknown
Longitude
Unknown
Altitude
Unknown
Speed
Unknown
Apparent Right ascension
Unknown
Apparent Declination
Unknown
Sunlit
N/A
Visualization observer readout
Local Sidereal Time
22:45:00
Azimuth
Unknown
Elevation
Unknown
Doppler factor
Unknown
Orbital elements
Apogee altitude
17,441.621 km
Perigee altitude
482.148 km
Semi-major axis
15,340.021 km
Eccentricity
0.55279
Inclination
19.877°
RAAN
231.9188°
Arg. of periapsis
22.524°
True anomaly
337.39241°
Mean anomaly
354.4721°
Eccentric anomaly
347.75425°
Mean motion
1.14236 °/min
Orbital period
315.14 mins
BSTAR
0.0015997
Loading maneuver chart data...
Computing Atmospheric mass density...
Loading historical data...
Loading historical data...
Loading historical data...
Loading historical data...
Loading historical data...
Loading historical data...
Loading historical data...

Documentation

Showing up to 5 results
|